STARLINK-31820, 59725

Orbit data source: Space-Track

STARLINK-31820, 59725 is a payload satellite owned by SpaceX/Seattle (US) in LEO that was launched on Fri, 10 May 2024 UTC via an FALCON 9 launch vehicle from the Air Force Western Test Range (AFWTR). Payload-class satellites include a variety of spacecraft equipped with specific instruments for various scientific and technological missions. These include communications satellites like Starlink; space stations such as the ISS; scientific satellites like the Hubble; Earth observation satellites from companies like Planet Labs, Umbra, and HawkEye 360; GPS; miniature CubeSats for education and research; and military/defense satellites.

Loading next visibility...
Identifier
59725, 2024-088T
Orbit
LEO
Country
Flag of USUS
Related business
Manufacturer
SpaceX/Seattle
Mission
Operational Commercial Communications
Bus & Motor
STARLINK V2M, Unknown motor
Mass
730 kg wet, ~700 kg dry
Launch date (UTC)
2024-05-10 (2 years ago)
Launch vehicle
FALCON 9
Launch site
Air Force Western Test Range (AFWTR)
Object type
Payload
Rocket body
Debris
Shape & HBR
Box + 2 Pan, 17.7 m
Radar Cross Section
33.884 m², Large (>1 m²)

Expand to show TLE details & history
Last TLE update: 3 days ago

TLE from 3 days ago
0 STARLINK-31820
1 59725U 24088T   26170.88241887  .00001189  00000-0  50061-4 0  9997
2 59725  53.1610  24.8622 0001198 106.8982 253.2151 15.31710068119331
Epoch: 2026-06-19T21:10Z
TLE epoch observation values (Epoch: 2026-06-19T21:10:40.990Z)
Latitude
-0°
Longitude
159.08639°
Altitude
471.847 km
Speed
7.631 km/s
True Right ascension
01h 39m 26s
True Declination
0° 00' 00"
Sunlit
Object was in daylight at epoch
Visualization orbit readout
Latitude
Unknown
Longitude
Unknown
Altitude
Unknown
Speed
Unknown
Apparent Right ascension
Unknown
Apparent Declination
Unknown
Sunlit
N/A
Visualization observer readout
Local Sidereal Time
21:55:00
Azimuth
Unknown
Elevation
Unknown
Doppler factor
Unknown
Orbital elements
Apogee altitude
471.787 km
Perigee altitude
470.146 km
Semi-major axis
6,849.103 km
Eccentricity
0.00012
Inclination
53.161°
RAAN
24.8622°
Arg. of periapsis
106.8982°
True anomaly
253.20196°
Mean anomaly
253.2151°
Eccentric anomaly
253.20853°
Mean motion
3.82906 °/min
Orbital period
94.02 mins
BSTAR
0.000050061
Loading maneuver chart data...
Computing Atmospheric mass density...
Loading historical data...
Loading historical data...
Loading historical data...
Loading historical data...
Loading historical data...
Loading historical data...
Loading historical data...

Documentation

Showing up to 5 results
|